Temp_Advection
nan nan nan nan nan nan nan nan nan nan nan nan nan nan nan nan nan nan nan nan nan nan nan nan nan nan nan nan nan nan nan nan nan nan nan nan nan nan nan nan nan nan nan
nan 0 0 -0 0 0 0 0 0 -0 -0 -0 -0 -0 -0 0 0 0 0 0 0 -0 -0 -0 -0 -0 -0 0 0 0 -0 -0 0 0 0 0 0 0 -0 -0 -0 0 nan
nan -0 -0 -0 -0 -0 -0 0 0 -0 -0 0 0 0 0 0 0 0 0 -0 -0 -0 -0 -0 -0 -0 -0 0 -0 0 -0 -0 -0 0 -0 0 0 0 0 0 0 -0 nan
nan -0 0 -0 -0 -0 0 -0 0 0 0 0 0 0 0 0 -0 -0 -0 -0 -0 -0 -0 -0 -0 -0 -0 -0 -0 -0 0 -0 -0 -0 0 -0 0 0 0 0 0 0 nan
nan 0 -0 -0 -0 -0 -0 -0 -0 -0 -0 -0 -0 -0 -0 -0 -0 -0 -0 -0 -0 -0 -0 -0 -0 -0 -0 -0 0 -0 0 0 -0 -0 0 0 0 0 0 0 0 0 nan
nan -0 -0 -0 -0 -0 -0 0 0 -0 -0 -0 -0 -0 -0 -0 -0 -0 -0 -0 -0 -0 -0 -0 -0 -0 -0 -0 -0 0 -0 -0 -0 -0 0 0 -0 0 0 0 0 0 nan
nan -0 -0 -0 -0 0 0 0 0 0 0 -0 -0 0 0 0 -0 -0 -0 -0 -0 -0 -0 -0 -0 -0 -0 -0 0 -0 -0 0 -0 0 0 0 0 0 0 0 0 0 nan
nan -0 -0 0 0 -0 -0 0 0 0 0 0 -0 -0 0 0 0 -0 0 0 -0 -0 -0 0 0 -0 -0 -0 0 0 -0 -0 -0 0 0 -0 -0 0 0 0 0 -0 nan
nan 0 -0 -0 -0 0 -0 -0 -0 -0 -0 -0 0 0 0 0 0 0 -0 -0 0 0 -0 -0 0 0 -0 -0 -0 0 0 0 0 0 0 -0 -0 -0 -0 -0 0 -0 nan
nan 0 0 0 0 0 0 -0 -0 -0 -0 -0 -0 -0 0 0 -0 -0 -0 -0 -0 -0 0 0 0 0 0 -0 -0 0 0 -0 0 0 -0 -0 -0 -0 -0 -0 0 0 nan
nan -0 -0 -0 -0 0 0 0 -0 -0 -0 -0 -0 -0 -0 -0 0 0 -0 -0 -0 0 0 0 0 0 0 -0 -0 -0 0 0 0 -0 -0 -0 -0 -0 -0 0 0 0 nan
nan -0 -0 -0 -0 -0 0 0 -0 -0 -0 -0 -0 -0 -0 -0 -0 -0 -0 -0 0 0 0 -0 0 0 0 0 -0 -0 0 0 0 0 0 -0 -0 -0 -0 0 0 0 nan
nan -0 -0 -0 -0 -0 -0 0 0 -0 -0 -0 -0 -0 -0 -0 -0 -0 -0 -0 -0 -0 -0 -0 -0 0 0 -0 -0 0 0 0 -0 -0 0 -0 -0 -0 0 0 0 0 nan
nan -1 -1 -1 -0 -0 -0 0 0 -0 0 -0 -0 -0 -0 -0 -0 -0 -0 0 -0 -0 -0 -0 -0 -0 -0 0 0 0 0 -0 -0 -0 -0 -0 -0 -0 0 0 0 0 nan
nan -1 -1 -1 -1 -1 -0 0 0 -0 -0 -0 -0 -0 -0 0 -0 -0 -0 -0 -0 -0 -0 -0 0 -0 -0 -0 -0 -0 0 0 -0 -0 0 -0 -0 0 0 0 0 0 nan
nan -0 -0 -1 -1 -1 -0 -0 -0 0 0 -0 -0 -1 -0 -0 0 -0 -0 -0 -0 -0 -0 -0 -0 -0 -0 0 -0 0 -0 0 0 0 -0 -1 0 0 0 0 0 0 nan
nan -0 -0 -0 -0 -0 -0 -0 -0 -1 -0 0 0 -0 -0 -0 -0 0 -0 -0 -0 -0 -0 -0 -0 -0 -0 -0 -0 0 0 0 -0 -0 0 0 -0 -0 0 0 -0 0 nan
nan -0 -0 -0 -0 -0 -0 -0 -0 -0 -1 -1 -0 -0 -1 -0 -0 0 0 -0 -0 -0 -0 -0 -0 -0 -0 -0 -0 0 0 0 -0 0 0 0 -0 -0 -0 -0 0 0 nan
nan -0 -0 -0 -0 -0 -0 -0 -0 -0 -0 -0 -0 -0 -0 -0 -1 -0 0 0 -0 -0 -0 -0 -0 -0 -0 -0 -1 -1 -1 -0 -0 0 0 0 0 0 -1 -0 0 0 nan
nan -0 -0 -0 -0 -0 -0 -0 -0 -0 -0 0 -0 -0 -0 -0 -0 -1 -1 0 0 -0 -0 -0 -0 -0 -0 -0 -0 -0 0 -0 -1 -1 -0 0 0 0 0 -0 -0 -0 nan
nan -0 -0 -0 -1 -1 -1 -1 -1 -1 -1 -1 -0 -0 -0 -0 -0 -0 -0 -0 0 0 -0 -0 -0 -0 -0 -0 -0 -0 -0 -0 0 -0 -1 -0 0 0 1 1 -0 -1 nan
nan -0 -0 -1 -1 -1 -1 -1 -1 -1 -1 -1 -1 -1 -1 -1 -1 -0 -0 -0 -0 -0 0 0 -1 -0 -0 -0 -0 -0 -0 -0 -0 -0 0 -1 -0 1 0 0 0 -0 nan
nan -0 -1 -1 -1 -1 -1 -1 -1 -1 -1 -1 -2 -2 -2 -2 -1 -1 -1 -1 -0 -0 -1 0 0 -0 -1 -0 -0 -1 -1 -0 -0 0 0 0 0 0 -0 0 0 0 nan
nan -0 -1 -1 -1 -1 -1 -1 -1 -1 -1 -1 -1 -2 -2 -2 -2 -2 -2 -1 -1 -0 -0 -1 -0 -0 -1 -1 -1 -0 -0 0 -0 -1 0 0 0 0 -0 -0 -0 -0 nan
nan -1 -1 -2 -1 -1 -2 -2 -2 -2 -2 -2 -2 -2 -2 -1 -2 -2 -2 -2 -2 -1 -0 0 0 -1 -1 -1 -1 -1 -0 -0 0 -0 -1 -1 -0 -0 -0 0 0 0 nan
nan nan nan nan nan nan nan nan nan nan nan nan nan nan nan nan nan nan nan nan nan nan nan nan nan nan nan nan nan nan nan nan nan nan nan nan nan nan nan nan nan nan nan
Wind_Speed
4 2 4 5 4 5 6 7 8 9 9 10 9 9 9 8 6 5 5 4 4 5 6 5 7 6 4 6 6 6 7 9 11 11 12 11 11 13 14 13 13 16 17
7 2 2 4 4 5 5 6 8 9 10 8 8 8 8 7 6 5 4 3 5 6 7 7 6 6 4 4 4 4 5 8 10 10 10 9 10 12 12 11 10 12 11
8 6 3 4 4 5 5 6 7 7 8 7 6 6 5 4 3 3 4 4 4 6 8 8 7 6 5 4 4 5 5 7 8 8 10 6 8 12 11 10 8 8 8
10 5 4 6 6 6 4 4 4 5 5 5 5 5 4 4 4 4 4 4 4 5 6 7 6 6 6 5 5 5 4 5 6 8 8 6 5 11 10 11 10 8 8
10 5 7 8 7 6 5 4 3 4 4 4 4 3 3 3 3 3 3 3 2 3 5 5 5 5 5 5 6 5 4 5 7 8 5 8 10 9 10 10 9 8 8
11 11 8 8 8 7 6 5 4 4 3 2 2 2 2 1 1 1 1 1 2 2 4 4 3 3 3 3 4 5 4 4 7 4 2 8 9 11 9 10 8 8 9
12 13 11 10 9 9 8 8 6 5 5 4 3 3 3 2 2 3 2 2 3 3 4 4 4 2 2 0 1 2 2 1 5 2 4 5 7 12 10 9 8 8 9
9 8 9 10 7 7 6 5 5 5 5 5 6 6 5 6 5 5 5 5 5 5 5 5 6 5 4 3 3 3 1 1 4 4 4 4 6 13 11 9 8 7 8
5 5 6 8 9 11 10 8 8 7 7 6 6 6 6 6 7 7 8 8 8 7 7 7 7 7 6 6 5 6 4 1 6 5 4 2 8 12 10 9 9 8 8
1 1 1 2 3 4 6 8 8 8 8 7 7 8 8 7 8 9 8 10 10 11 10 9 9 9 8 7 7 7 8 6 4 7 5 8 8 8 9 9 11 9 8
2 3 3 4 4 5 5 7 8 9 8 10 10 9 7 6 5 8 11 12 11 12 12 11 11 11 11 10 9 8 9 9 5 6 7 12 8 7 9 11 13 12 12
3 5 6 8 8 8 7 7 7 8 7 7 8 8 7 7 7 10 10 12 12 12 13 13 13 14 14 9 11 11 10 8 9 10 9 15 11 8 11 16 16 16 14
8 8 9 9 9 10 11 8 6 8 8 6 7 8 8 8 7 8 7 6 6 10 11 13 12 15 13 11 12 10 8 9 10 11 13 17 13 10 8 11 21 19 14
8 9 9 9 9 9 8 10 9 8 10 8 9 10 9 7 7 7 7 8 7 6 7 14 14 13 14 15 16 12 11 11 11 11 11 17 15 12 10 10 19 19 13
11 11 11 10 9 9 7 6 4 6 7 8 8 10 12 9 7 7 7 7 8 8 8 9 13 13 13 14 15 16 14 12 12 14 14 16 16 15 15 15 15 16 18
12 13 13 13 11 10 8 7 6 6 2 5 7 9 9 9 8 8 8 8 8 8 9 9 10 12 15 15 16 15 15 16 13 13 14 16 16 17 17 17 18 18 18
14 14 14 15 13 12 10 8 8 8 7 8 7 7 9 9 10 10 9 8 8 10 11 11 11 13 14 15 15 15 16 17 18 17 15 15 16 17 20 20 20 19 18
15 16 17 17 16 14 12 10 10 10 9 7 7 7 10 11 11 11 9 9 10 11 11 11 10 18 16 18 20 21 21 22 21 19 20 17 19 20 19 21 22 21 20
16 17 17 17 19 18 16 14 12 10 10 11 11 11 12 11 11 12 11 8 12 13 12 11 12 12 13 15 16 19 23 25 25 25 26 24 22 21 23 22 23 23 23
16 17 19 20 19 19 19 18 17 15 12 12 13 14 15 16 15 14 15 15 12 11 11 11 13 13 14 14 15 15 17 19 23 26 28 29 28 26 24 26 25 26 27
15 16 19 20 22 22 23 24 23 23 21 19 18 19 17 16 17 20 19 19 18 14 15 17 15 15 16 14 16 23 22 21 22 24 25 27 31 29 29 27 28 29 28
15 17 20 22 24 25 26 26 27 27 26 25 25 25 24 23 21 19 19 21 22 21 20 17 16 16 17 17 16 17 16 16 17 21 22 27 27 27 28 29 28 28 30
15 18 21 22 24 26 27 28 29 29 29 29 31 32 30 30 30 28 25 24 23 23 24 22 18 17 21 20 17 15 9 9 9 12 16 20 25 24 24 26 30 29 29
14 17 19 22 24 26 28 29 30 31 33 33 34 35 35 34 32 32 32 31 28 28 26 25 22 19 20 26 25 26 26 24 13 12 12 10 17 22 26 26 26 29 30
16 19 21 24 26 28 30 30 31 32 32 34 34 35 35 34 31 32 32 33 33 32 31 29 28 26 25 25 28 30 31 30 29 30 25 22 17 19 22 26 34 37 36
14 18 20 22 26 27 28 29 29 30 32 34 35 34 35 34 34 32 31 33 34 35 34 33 32 33 30 30 29 31 34 31 25 27 30 28 28 23 18 18 19 18 19
Wind_Direction
90 51 125 109 101 88 80 71 70 72 81 84 87 87 82 81 87 93 89 81 52 32 40 41 76 76 51 72 79 85 126 121 124 119 108 110 113 125 115 100 105 112 115
96 345 146 109 100 95 86 75 74 78 87 87 84 85 82 80 70 67 56 26 14 47 59 52 66 92 72 68 66 93 127 145 124 118 109 114 114 126 135 129 139 119 117
86 52 33 85 87 85 82 78 72 73 80 89 87 81 80 74 52 42 44 56 63 62 63 55 46 63 71 58 76 99 119 149 150 117 88 82 128 125 125 131 128 128 130
90 90 77 79 78 85 86 76 75 74 77 84 83 79 70 62 52 49 58 67 58 54 44 55 53 42 65 72 81 100 116 137 155 138 89 138 156 145 132 128 121 118 126
79 56 76 68 69 72 69 57 47 52 49 54 57 55 51 52 49 43 57 69 28 40 18 23 52 61 50 72 82 85 102 116 131 114 137 182 165 173 146 140 131 131 135
72 66 58 65 57 49 44 34 25 18 22 24 26 17 353 358 14 53 26 350 351 339 347 347 360 56 63 69 77 85 75 122 114 131 182 179 181 180 168 151 144 142 134
66 55 36 51 49 42 30 21 13 7 2 355 350 338 317 299 291 287 285 295 309 315 318 314 306 326 8 1 139 66 68 130 130 204 188 202 168 168 168 155 154 147 143
88 75 65 31 61 49 35 20 12 3 353 343 335 325 318 310 299 283 281 285 291 296 293 288 283 281 305 290 256 251 309 348 99 213 205 235 205 175 173 171 172 164 157
77 71 71 57 43 20 2 8 360 352 344 334 323 312 305 303 302 294 286 286 283 284 285 277 273 273 280 286 266 246 240 242 140 238 194 241 228 173 176 182 189 180 168
85 45 46 29 12 20 14 356 359 360 352 342 331 320 313 312 324 306 294 278 280 279 273 271 270 270 272 276 275 253 240 229 186 239 224 223 238 223 212 205 196 187 181
250 264 276 289 296 312 338 339 351 350 351 353 347 335 338 345 301 293 278 279 281 281 278 272 266 264 267 268 269 259 244 229 248 240 237 249 226 224 224 217 198 196 201
283 282 286 287 289 288 288 300 329 337 342 341 341 335 335 317 297 287 287 283 273 275 279 274 269 269 268 266 292 268 250 231 235 237 235 253 240 245 240 228 211 202 202
347 329 318 309 301 293 290 293 323 327 331 331 333 334 324 325 313 320 309 315 303 292 291 277 273 265 261 250 232 267 265 242 238 240 238 249 244 255 270 227 214 210 206
348 337 328 320 311 303 289 279 289 308 300 325 310 324 327 325 317 314 304 296 301 280 261 287 275 272 266 256 244 233 250 254 249 227 244 256 246 246 245 226 222 218 207
5 0 356 349 336 328 308 288 305 305 304 307 315 306 308 314 317 309 306 300 296 286 274 260 282 268 267 267 260 245 229 251 259 256 242 249 246 240 239 231 215 203 210
21 17 13 10 4 358 345 330 292 263 276 340 341 323 304 299 294 311 308 302 294 291 286 282 269 271 263 256 258 263 252 232 237 259 266 256 253 243 234 235 233 225 222
32 28 25 21 15 13 8 5 332 337 293 280 252 256 275 279 278 288 302 306 298 291 284 288 282 260 253 255 256 255 252 251 243 231 245 257 261 249 243 236 235 235 236
41 39 36 31 25 21 18 12 3 356 357 339 330 319 302 293 285 277 294 303 298 290 291 279 282 280 274 268 261 255 255 256 258 254 241 238 258 257 252 245 239 236 233
35 34 34 32 30 28 26 22 14 6 355 351 333 326 320 309 297 286 275 291 296 293 290 287 282 280 280 280 286 285 270 261 257 258 257 248 240 253 254 251 243 240 241
35 32 28 26 24 22 19 17 16 14 1 353 340 334 318 312 312 310 299 285 291 292 296 296 289 284 279 276 272 264 265 276 270 258 257 256 252 245 252 251 251 244 242
30 26 22 17 13 9 7 3 359 356 353 350 343 340 331 322 312 301 305 304 295 285 283 277 271 278 275 273 277 277 278 275 267 266 267 256 251 251 248 250 249 251 249
22 18 14 10 6 2 359 356 351 346 342 337 332 331 328 324 318 308 299 293 295 294 285 289 293 278 271 259 266 273 284 281 268 264 256 256 255 247 249 244 240 251 251
11 8 4 359 356 352 349 344 340 336 332 330 326 324 321 318 314 309 304 296 288 286 286 283 278 283 279 264 259 259 277 250 292 264 255 249 260 242 249 247 245 237 245
359 353 350 347 345 342 339 336 334 332 327 324 321 318 316 314 310 305 302 298 292 285 280 276 277 264 269 273 269 251 252 254 277 283 258 267 245 239 237 238 241 241 240
344 342 340 338 336 334 332 330 327 323 318 315 313 310 309 308 304 301 299 296 292 287 282 276 269 271 254 259 266 269 256 259 263 262 263 263 272 271 260 250 246 248 245
337 336 334 332 331 329 328 326 322 318 316 313 313 310 309 303 300 298 295 291 289 287 284 280 272 265 258 256 248 256 260 253 255 262 252 255 254 253 265 255 248 255 247
Height
1544 1541 1542 1542 1543 1543 1544 1545 1545 1546 1546 1546 1547 1547 1547 1548 1548 1548 1548 1548 1548 1548 1547 1546 1546 1547 1546 1546 1546 1546 1546 1546 1546 1547 1547 1548 1548 1549 1549 1551 1551 1550 1551
1546 1543 1543 1544 1545 1545 1547 1547 1547 1547 1548 1548 1549 1549 1549 1550 1550 1550 1550 1550 1549 1549 1549 1548 1547 1548 1548 1548 1548 1548 1548 1548 1548 1549 1550 1550 1550 1551 1551 1552 1552 1553 1553
1549 1548 1546 1546 1547 1547 1548 1549 1549 1550 1550 1550 1551 1551 1551 1551 1551 1551 1551 1551 1550 1550 1551 1550 1549 1549 1549 1549 1549 1549 1550 1550 1551 1552 1553 1554 1553 1553 1553 1554 1554 1555 1555
1549 1548 1548 1548 1548 1549 1550 1551 1551 1551 1552 1552 1552 1552 1552 1552 1552 1552 1552 1552 1552 1551 1552 1552 1551 1550 1550 1550 1550 1551 1551 1551 1552 1554 1555 1558 1556 1555 1555 1555 1555 1556 1556
1550 1550 1550 1550 1550 1551 1551 1552 1552 1552 1552 1553 1553 1553 1553 1553 1553 1554 1553 1554 1553 1553 1553 1553 1553 1553 1552 1552 1552 1552 1552 1552 1553 1555 1557 1556 1557 1556 1556 1557 1557 1557 1558
1553 1553 1552 1551 1552 1552 1553 1553 1553 1552 1552 1553 1553 1553 1553 1553 1553 1554 1555 1555 1555 1554 1554 1554 1554 1554 1554 1553 1553 1553 1553 1554 1554 1557 1556 1556 1555 1557 1557 1558 1558 1558 1559
1555 1555 1553 1554 1554 1553 1553 1554 1553 1554 1553 1552 1553 1553 1553 1554 1554 1554 1554 1555 1555 1555 1555 1555 1554 1554 1554 1554 1554 1554 1554 1554 1554 1557 1557 1556 1556 1556 1558 1559 1559 1559 1561
1553 1554 1554 1555 1554 1554 1554 1553 1553 1553 1553 1553 1553 1553 1554 1554 1554 1554 1554 1554 1555 1555 1555 1555 1554 1554 1554 1554 1555 1555 1555 1555 1555 1557 1556 1556 1557 1557 1559 1559 1560 1561 1562
1553 1553 1553 1553 1554 1555 1554 1554 1554 1553 1553 1552 1552 1552 1553 1553 1553 1554 1554 1554 1554 1554 1554 1554 1554 1554 1554 1554 1554 1555 1555 1555 1556 1558 1557 1557 1556 1558 1559 1560 1561 1561 1562
1554 1554 1554 1554 1554 1554 1554 1554 1554 1553 1553 1552 1552 1552 1551 1552 1552 1552 1553 1552 1553 1553 1553 1553 1553 1553 1553 1553 1553 1554 1554 1555 1556 1557 1557 1557 1557 1557 1558 1559 1560 1562 1563
1553 1553 1553 1554 1553 1553 1554 1554 1554 1553 1553 1553 1552 1551 1551 1553 1553 1553 1551 1551 1551 1552 1552 1552 1551 1551 1551 1552 1552 1552 1553 1554 1557 1557 1557 1556 1556 1556 1557 1558 1559 1561 1562
1552 1552 1552 1553 1553 1553 1553 1553 1553 1554 1553 1553 1553 1552 1552 1552 1551 1550 1549 1548 1549 1549 1550 1550 1550 1550 1550 1551 1551 1551 1551 1552 1555 1556 1556 1555 1555 1555 1555 1556 1558 1559 1560
1553 1553 1552 1551 1551 1551 1552 1552 1553 1553 1553 1552 1552 1551 1551 1551 1550 1550 1549 1548 1548 1548 1547 1548 1548 1548 1549 1550 1550 1551 1550 1552 1553 1553 1554 1553 1554 1554 1553 1553 1555 1557 1560
1552 1552 1551 1550 1550 1549 1549 1550 1551 1551 1551 1551 1549 1549 1548 1549 1549 1549 1548 1548 1546 1546 1547 1546 1546 1546 1546 1547 1548 1549 1550 1550 1549 1550 1551 1550 1551 1552 1552 1552 1554 1555 1559
1553 1552 1550 1549 1549 1548 1547 1547 1548 1549 1549 1549 1548 1547 1547 1546 1547 1547 1547 1546 1546 1545 1545 1544 1543 1543 1544 1544 1545 1546 1547 1549 1548 1547 1548 1547 1549 1550 1551 1551 1552 1554 1556
1555 1553 1552 1550 1549 1548 1547 1547 1546 1545 1545 1547 1547 1545 1544 1544 1544 1544 1544 1545 1543 1544 1543 1542 1541 1541 1540 1541 1541 1542 1543 1545 1546 1547 1546 1545 1546 1547 1548 1549 1550 1552 1554
1557 1555 1553 1552 1550 1548 1547 1547 1545 1544 1545 1544 1543 1541 1541 1541 1541 1541 1542 1542 1541 1540 1539 1538 1538 1537 1536 1536 1537 1538 1539 1540 1540 1542 1544 1544 1543 1544 1545 1546 1547 1548 1550
1558 1556 1555 1554 1551 1550 1548 1547 1546 1545 1544 1543 1542 1540 1539 1539 1539 1538 1539 1539 1538 1536 1536 1535 1536 1533 1533 1533 1532 1533 1534 1535 1536 1537 1539 1540 1540 1540 1541 1543 1545 1546 1547
1560 1558 1556 1555 1553 1551 1549 1548 1546 1545 1545 1544 1541 1540 1539 1537 1536 1536 1535 1536 1535 1533 1533 1533 1532 1532 1531 1530 1529 1528 1528 1528 1530 1531 1533 1535 1537 1537 1537 1538 1540 1542 1544
1561 1559 1558 1556 1554 1553 1551 1549 1548 1546 1544 1543 1541 1539 1538 1537 1535 1534 1532 1532 1531 1531 1531 1530 1530 1529 1528 1528 1527 1526 1525 1524 1523 1524 1526 1528 1530 1532 1533 1534 1535 1537 1539
1561 1560 1559 1557 1555 1552 1550 1549 1547 1545 1543 1542 1540 1539 1536 1534 1533 1532 1531 1529 1528 1527 1526 1525 1524 1525 1524 1525 1523 1520 1519 1519 1518 1518 1519 1520 1522 1524 1526 1528 1529 1531 1533
1561 1560 1559 1557 1555 1553 1551 1549 1548 1545 1543 1541 1538 1536 1534 1532 1531 1529 1527 1526 1525 1523 1522 1522 1521 1520 1519 1520 1520 1518 1516 1515 1514 1512 1513 1514 1515 1517 1518 1521 1523 1525 1526
1562 1561 1559 1557 1555 1553 1550 1548 1546 1544 1541 1538 1535 1532 1530 1528 1526 1525 1523 1521 1520 1519 1517 1517 1517 1517 1515 1516 1516 1517 1514 1511 1511 1509 1508 1509 1509 1511 1513 1515 1516 1518 1520
1561 1560 1558 1556 1554 1552 1549 1545 1542 1538 1535 1533 1530 1527 1524 1523 1521 1519 1517 1516 1514 1512 1511 1511 1510 1510 1511 1509 1510 1510 1510 1510 1509 1506 1505 1504 1505 1506 1507 1508 1510 1511 1513
1559 1558 1556 1554 1551 1550 1546 1543 1539 1535 1532 1528 1525 1521 1519 1516 1514 1513 1511 1509 1507 1505 1504 1503 1502 1502 1502 1503 1502 1502 1503 1503 1503 1503 1500 1501 1500 1499 1500 1500 1501 1503 1504
1559 1556 1553 1550 1547 1544 1541 1537 1534 1529 1524 1520 1516 1512 1510 1508 1506 1505 1504 1501 1499 1497 1496 1494 1493 1492 1492 1492 1493 1494 1494 1494 1495 1496 1495 1495 1495 1496 1495 1495 1496 1497 1498